GW7662 Weather Reports


time (UTC)temp
C
wind
direction
speed
KPH
gust
KPH
rain 1hr
cm
rain 24hr
cm
rain mn
cm
humidity
%
barometer
mb
20260906113500 22 0 0.0 0.0 0.00 0.00 0.00 95 1012.9
20260906113000 22 0 0.0 0.0 0.00 0.00 0.00 95 1012.9
20260906112500 22 0 0.0 0.0 0.00 0.00 0.00 94 1012.9
20260906112000 22 0 0.0 0.0 0.00 0.00 0.00 94 1012.5
20260906111500 22 0 0.0 0.0 0.00 0.00 0.00 93 1012.5
20260906111000 22 0 0.0 0.0 0.00 0.00 0.00 93 1012.5
20260906110500 22 0 0.0 0.0 0.00 0.00 0.00 92 1012.5
20260906110000 22 0 0.0 0.0 0.00 0.00 0.00 93 1012.2
20260906105500 22 0 0.0 0.0 0.00 0.00 0.00 93 1012.2
20260906105000 22 0 0.0 0.0 0.00 0.00 0.00 93 1012.2
20260906104500 22 0 0.0 0.0 0.00 0.00 0.00 92 1012.2
20260906104000 22 0 0.0 0.0 0.00 0.00 0.00 92 1012.2
20260906103500 22 0 0.0 0.0 0.00 0.00 0.00 92 1012.2
20260906103000 22 0 0.0 0.0 0.00 0.00 0.00 92 1012.2
20260906102500 22 0 0.0 0.0 0.00 0.00 0.00 92 1011.9
20260906102000 22 0 0.0 0.0 0.00 0.00 0.00 92 1012.2
20260906101500 22 0 0.0 0.0 0.00 0.00 0.00 92 1011.9
20260906101000 22 0 0.0 0.0 0.00 0.00 0.00 92 1011.9
20260906100500 22 0 0.0 0.0 0.00 0.00 0.00 93 1011.9
20260906100000 22 0 0.0 0.0 0.00 0.00 0.00 93 1011.9
20260906095500 22 0 0.0 0.0 0.00 0.00 0.00 92 1011.9
20260906095000 22 0 0.0 0.0 0.00 0.00 0.00 92 1011.9
20260906094500 22 0 0.0 0.0 0.00 0.00 0.00 92 1011.9
20260906094000 22 0 0.0 0.0 0.00 0.00 0.00 91 1011.9
20260906093500 22 0 0.0 0.0 0.00 0.00 0.00 91 1011.9
20260906093000 22 0 0.0 0.0 0.00 0.00 0.00 92 1011.9
20260906092500 22 0 0.0 0.0 0.00 0.00 0.00 91 1011.9
20260906092000 22 0 0.0 0.0 0.00 0.00 0.00 91 1011.9
20260906091500 22 0 0.0 0.0 0.00 0.00 0.00 91 1011.9
20260906091000 22 0 0.0 0.0 0.00 0.00 0.00 91 1011.9
20260906090500 22 0 0.0 0.0 0.00 0.00 0.00 91 1011.9
20260906090000 22 0 0.0 0.0 0.00 0.00 0.00 92 1011.9
20260906085500 22 0 0.0 0.0 0.00 0.00 0.00 91 1011.5
20260906085000 22 0 0.0 0.0 0.00 0.00 0.00 91 1011.9
20260906084500 22 0 0.0 0.0 0.00 0.00 0.00 91 1011.9
20260906084000 22 0 0.0 0.0 0.00 0.00 0.00 91 1011.5
20260906083500 22 0 0.0 0.0 0.00 0.00 0.00 91 1011.5
20260906083000 22 0 0.0 0.0 0.00 0.00 0.00 91 1011.5
20260906082500 22 0 0.0 0.0 0.00 0.00 0.00 91 1011.5
20260906082000 22 0 0.0 0.0 0.00 0.00 0.00 92 1011.5
20260906081500 22 0 0.0 0.0 0.00 0.00 0.00 91 1011.5
20260906081000 22 0 0.0 0.0 0.00 0.00 0.00 91 1011.5
20260906080500 22 0 0.0 0.0 0.00 0.00 0.00 91 1011.5
20260906080000 22 0 0.0 0.0 0.00 0.00 0.00 91 1011.2
20260906075500 22 0 0.0 0.0 0.00 0.00 0.00 91 1011.5
20260906075000 22 0 0.0 0.0 0.00 0.00 0.00 92 1011.5
20260906074500 22 0 0.0 1.6 0.00 0.00 0.00 92 1011.2
20260906074000 22 0 0.0 3.2 0.00 0.00 0.00 93 1011.2
20260906073500 22 292 1.6 4.8 0.00 0.00 0.00 93 1011.2
20260906073000 22 292 1.6 6.4 0.00 0.00 0.00 92 1011.2
20260906072500 22 292 3.2 6.4 0.00 0.00 0.00 92 1011.5
20260906072000 22 292 3.2 6.4 0.00 0.00 0.00 92 1011.5
20260906071500 22 292 4.8 6.4 0.00 0.00 0.00 92 1011.2
20260906071000 22 22 4.8 9.7 0.00 0.00 0.00 92 1011.5
20260906070500 22 292 3.2 9.7 0.00 0.00 0.00 92 1011.5
20260906070000 22 292 4.8 9.7 0.00 0.00 0.00 92 1011.5
20260906065500 22 22 6.4 11.3 0.00 0.00 0.00 92 1011.5
20260906065000 22 292 6.4 11.3 0.00 0.00 0.00 91 1011.5
20260906064500 22 292 4.8 9.7 0.00 0.00 0.00 90 1011.5
20260906064000 23 22 4.8 4.8 0.00 0.00 0.00 90 1011.5
20260906063500 23 292 3.2 4.8 0.00 0.00 0.00 89 1011.5
20260906063000 23 247 1.6 3.2 0.00 0.00 0.00 90 1011.5
20260906062500 23 247 1.6 4.8 0.00 0.00 0.00 89 1011.5
20260906062000 23 0 0.0 4.8 0.00 0.00 0.00 89 1011.5
20260906061500 23 22 3.2 4.8 0.00 0.00 0.00 88 1011.5
20260906061000 23 0 0.0 0.0 0.00 0.00 0.00 88 1011.5
20260906060500 23 0 0.0 0.0 0.00 0.00 0.00 88 1011.5
20260906060000 23 0 0.0 3.2 0.00 0.00 0.00 88 1011.5
20260906055500 23 0 0.0 4.8 0.00 0.00 0.00 88 1011.5
20260906055000 23 292 1.6 4.8 0.00 0.00 0.00 88 1011.5
20260906054500 23 67 4.8 4.8 0.00 0.00 0.00 88 1011.5
20260906054000 23 0 0.0 0.0 0.00 0.00 0.00 87 1011.9
20260906053500 23 0 0.0 1.6 0.00 0.00 0.00 87 1011.5
20260906053000 23 0 0.0 4.8 0.00 0.00 0.00 87 1011.5
20260906052500 23 202 1.6 4.8 0.00 0.00 0.00 87 1011.5
20260906052000 23 0 0.0 3.2 0.00 0.00 0.00 88 1011.5
20260906051500 23 0 0.0 4.8 0.00 0.00 0.00 88 1011.5
20260906051000 23 180 3.2 4.8 0.00 0.00 0.00 88 1011.5
20260906050500 23 180 1.6 4.8 0.00 0.00 0.00 87 1011.9
20260906050000 23 180 1.6 6.4 0.00 0.00 0.00 87 1011.5
20260906045500 23 180 3.2 8.0 0.00 0.00 0.00 87 1011.5
20260906045000 23 180 3.2 8.0 0.00 0.00 0.00 87 1011.9
20260906044500 23 180 3.2 8.0 0.00 0.00 0.00 87 1011.9
20260906044000 23 180 3.2 8.0 0.00 0.00 0.00 87 1011.9
20260906043500 23 202 6.4 9.7 0.00 0.00 0.00 87 1011.9
20260906043000 23 180 4.8 9.7 0.00 0.00 0.00 87 1011.9
20260906042500 23 202 8.0 9.7 0.00 0.00 0.00 87 1011.9
20260906042000 23 202 6.4 14.5 0.00 0.00 0.00 87 1011.9
20260906041500 23 225 3.2 14.5 0.00 0.00 0.00 87 1011.9
20260906041000 23 202 4.8 14.5 0.00 0.00 0.00 87 1011.9
20260906040500 23 180 8.0 17.7 0.00 0.00 0.00 88 1011.9
20260906040000 23 180 4.8 17.7 0.00 0.00 0.00 88 1011.9
20260906035500 23 202 4.8 14.5 0.00 0.00 0.00 87 1011.9
20260906035000 23 202 9.7 14.5 0.00 0.00 0.00 87 1011.9
20260906034500 23 202 4.8 9.7 0.00 0.00 0.00 86 1011.9
20260906034000 24 202 9.7 9.7 0.00 0.00 0.00 86 1011.5
20260906033500 24 225 6.4 6.4 0.00 0.00 0.00 86 1011.5
20260906033000 24 180 3.2 12.9 0.00 0.00 0.00 86 1011.5
20260906032500 24 202 6.4 12.9 0.00 0.00 0.00 86 1011.5
20260906032000 24 202 6.4 9.7 0.00 0.00 0.00 86 1011.5
20260906031500 24 202 3.2 3.2 0.00 0.00 0.00 85 1011.5
20260906031000 24 0 0.0 3.2 0.00 0.00 0.00 85 1011.5
20260906030500 24 0 0.0 3.2 0.00 0.00 0.00 86 1011.5
20260906030000 24 0 0.0 3.2 0.00 0.00 0.00 86 1011.5
20260906025500 24 157 3.2 3.2 0.00 0.00 0.00 85 1011.5
20260906025000 24 157 1.6 4.8 0.00 0.00 0.00 86 1011.2
20260906024500 24 0 0.0 4.8 0.00 0.00 0.00 85 1011.2
20260906024000 24 0 0.0 3.2 0.00 0.00 0.00 85 1011.2
20260906023500 24 0 0.0 3.2 0.00 0.00 0.00 85 1011.5
20260906023000 24 157 3.2 6.4 0.00 0.00 0.00 86 1011.2
20260906022500 24 202 3.2 8.0 0.00 0.00 0.00 86 1011.2
20260906022000 25 157 6.4 8.0 0.00 0.00 0.00 86 1011.5
20260906021500 25 157 3.2 4.8 0.00 0.00 0.00 85 1011.2
20260906021000 25 180 3.2 6.4 0.00 0.00 0.00 85 1011.2
20260906020500 25 112 4.8 8.0 0.00 0.00 0.00 86 1011.5
20260906020000 25 157 4.8 8.0 0.00 0.00 0.00 85 1011.5
20260906015500 25 157 3.2 6.4 0.00 0.00 0.00 84 1011.5
20260906015000 25 0 0.0 8.0 0.00 0.00 0.00 84 1011.2
20260906014500 25 157 1.6 8.0 0.00 0.00 0.00 84 1011.2
20260906014000 25 180 4.8 17.7 0.00 0.00 0.00 83 1011.2
20260906013500 25 180 8.0 20.9 0.00 0.00 0.00 82 1011.2
20260906013000 25 225 12.9 20.9 0.00 0.00 0.00 82 1010.8
20260906012500 26 202 6.4 16.1 0.00 0.00 0.00 81 1010.8
20260906012000 26 270 6.4 29.0 0.00 0.00 0.00 78 1010.8
20260906011500 26 135 8.0 29.0 0.00 0.00 0.00 77 1010.8
20260906011000 27 180 11.3 27.4 0.00 0.00 0.00 79 1011.2
20260906010500 28 135 6.4 27.4 0.00 0.00 0.00 73 1010.8
20260906010000 28 67 4.8 16.1 0.00 0.00 0.00 69 1010.8
20260906005500 28 202 4.8 16.1 0.00 0.00 0.00 73 1010.5
20260906005000 28 225 4.8 6.4 0.00 0.00 0.00 75 1010.5
20260906004500 28 225 4.8 6.4 0.00 0.00 0.00 74 1010.2
20260906004000 28 180 4.8 8.0 0.00 0.00 0.00 73 1009.8
20260906003500 28 0 0.0 9.7 0.00 0.00 0.00 73 1010.2
20260906003000 29 225 6.4 9.7 0.00 0.00 0.00 73 1010.2
20260906002500 30 180 3.2 6.4 0.00 0.00 0.00 71 1010.2
20260906002000 30 0 0.0 0.0 0.00 0.00 0.00 67 1010.2
20260906001500 31 0 0.0 0.0 0.00 0.00 0.00 65 1010.2
20260906001000 31 0 0.0 0.0 0.00 0.00 0.00 64 1010.2
20260906000500 31 0 0.0 0.0 0.00 0.00 0.00 65 1010.5
20260906000000 31 0 0.0 3.2 0.00 0.00 0.00 65 1010.5
20260905235500 31 0 0.0 4.8 0.00 0.00 0.00 64 1010.5
20260905235000 31 22 4.8 4.8 0.00 0.00 0.00 63 1010.8
20260905234500 31 67 3.2 4.8 0.00 0.00 0.00 62 1010.8
20260905234000 31 0 0.0 0.0 0.00 0.00 0.00 62 1010.8
20260905233500 32 0 0.0 0.0 0.00 0.00 0.00 62 1010.5
20260905233000 32 0 0.0 0.0 0.00 0.00 0.00 61 1010.5
20260905232500 32 0 0.0 0.0 0.00 0.00 0.00 60 1010.5
20260905232000 32 0 0.0 0.0 0.00 0.00 0.00 60 1010.5
20260905231500 32 0 0.0 0.0 0.00 0.00 0.00 60 1010.5
20260905231000 32 0 0.0 0.0 0.00 0.00 0.00 58 1010.2
20260905230500 33 0 0.0 0.0 0.00 0.00 0.00 57 1010.2
20260905230000 32 0 0.0 0.0 0.00 0.00 0.00 58 1010.2
20260905225500 32 0 0.0 3.2 0.00 0.00 0.00 56 1010.2
20260905225000 33 0 0.0 4.8 0.00 0.00 0.00 54 1010.2
20260905224500 33 0 0.0 8.0 0.00 0.00 0.00 53 1009.8
20260905224000 33 22 8.0 8.0 0.00 0.00 0.00 53 1010.2
20260905223500 33 157 1.6 8.0 0.00 0.00 0.00 54 1009.8
20260905223000 33 67 3.2 9.7 0.00 0.00 0.00 52 1010.2
20260905222500 33 22 4.8 11.3 0.00 0.00 0.00 52 1010.2
20260905222000 33 22 8.0 11.3 0.00 0.00 0.00 52 1010.2
20260905221500 33 0 0.0 0.0 0.00 0.00 0.00 56 1010.2
20260905221000 33 0 0.0 0.0 0.00 0.00 0.00 54 1010.2
20260905220500 33 0 0.0 0.0 0.00 0.00 0.00 55 1010.2
20260905220000 33 0 0.0 3.2 0.00 0.00 0.00 54 1010.2
20260905215500 33 0 0.0 8.0 0.00 0.00 0.00 51 1010.2
20260905215000 33 0 0.0 9.7 0.00 0.00 0.00 49 1010.2
20260905214500 34 292 9.7 9.7 0.00 0.00 0.00 48 1010.2
20260905214000 34 0 0.0 9.7 0.00 0.00 0.00 49 1010.5
20260905213500 33 67 6.4 11.3 0.00 0.00 0.00 48 1010.5
20260905213000 33 292 8.0 11.3 0.00 0.00 0.00 48 1010.5
20260905212500 33 225 1.6 11.3 0.00 0.00 0.00 48 1010.5
20260905212000 34 0 0.0 11.3 0.00 0.00 0.00 48 1010.5
20260905211500 34 292 3.2 8.0 0.00 0.00 0.00 47 1010.5
20260905211000 34 292 6.4 9.7 0.00 0.00 0.00 48 1010.5
20260905210500 34 292 1.6 11.3 0.00 0.00 0.00 46 1010.8
20260905210000 34 292 9.7 11.3 0.00 0.00 0.00 47 1010.8
20260905205500 34 292 8.0 11.3 0.00 0.00 0.00 46 1010.8
20260905205000 34 292 4.8 9.7 0.00 0.00 0.00 47 1010.8
20260905204500 33 292 9.7 12.9 0.00 0.00 0.00 48 1010.8
20260905204000 34 22 1.6 12.9 0.00 0.00 0.00 48 1010.8
20260905203500 34 292 3.2 11.3 0.00 0.00 0.00 49 1010.8
20260905203000 33 0 0.0 14.5 0.00 0.00 0.00 48 1011.2
20260905202500 34 22 6.4 14.5 0.00 0.00 0.00 48 1011.2
20260905202000 34 67 4.8 14.5 0.00 0.00 0.00 47 1011.2
20260905201500 34 22 14.5 14.5 0.00 0.00 0.00 47 1011.2
20260905201000 34 225 12.9 14.5 0.00 0.00 0.00 48 1011.2
20260905200500 34 180 3.2 16.1 0.00 0.00 0.00 50 1011.5
20260905200000 35 180 4.8 16.1 0.00 0.00 0.00 50 1011.5
20260905195500 35 292 4.8 11.3 0.00 0.00 0.00 50 1011.5
20260905195000 34 225 3.2 17.7 0.00 0.00 0.00 50 1011.5
20260905194500 35 67 6.4 17.7 0.00 0.00 0.00 48 1011.5
20260905194000 35 67 3.2 14.5 0.00 0.00 0.00 48 1011.9
20260905193500 35 270 4.8 14.5 0.00 0.00 0.00 47 1011.9
20260905193000 35 225 1.6 11.3 0.00 0.00 0.00 48 1011.9
20260905192500 35 247 4.8 9.7 0.00 0.00 0.00 48 1011.9
20260905192000 35 225 3.2 14.5 0.00 0.00 0.00 48 1011.9
20260905191500 35 247 1.6 14.5 0.00 0.00 0.00 48 1012.2
20260905191000 35 180 3.2 11.3 0.00 0.00 0.00 49 1012.2
20260905190500 35 112 1.6 11.3 0.00 0.00 0.00 49 1012.2
20260905190000 34 292 6.4 12.9 0.00 0.00 0.00 49 1012.2
20260905185500 35 22 11.3 12.9 0.00 0.00 0.00 48 1012.5
20260905185000 35 22 9.7 12.9 0.00 0.00 0.00 46 1012.5
20260905184500 36 22 8.0 11.3 0.00 0.00 0.00 47 1012.5
20260905184000 36 180 6.4 12.9 0.00 0.00 0.00 47 1012.9
20260905183500 36 247 3.2 12.9 0.00 0.00 0.00 48 1012.9
20260905183000 36 0 0.0 11.3 0.00 0.00 0.00 48 1012.9
20260905182500 35 247 4.8 11.3 0.00 0.00 0.00 50 1012.9
20260905182000 35 247 3.2 11.3 0.00 0.00 0.00 49 1012.9
20260905181500 35 157 1.6 12.9 0.00 0.00 0.00 51 1012.9
20260905181000 35 22 1.6 12.9 0.00 0.00 0.00 51 1013.2
20260905180500 35 67 3.2 11.3 0.00 0.00 0.00 49 1013.2
20260905180000 35 180 1.6 17.7 0.00 0.00 0.00 50 1013.2
20260905175500 35 225 4.8 17.7 0.00 0.00 0.00 51 1013.2
20260905175000 35 157 1.6 12.9 0.00 0.00 0.00 50 1013.2
20260905174500 34 292 6.4 12.9 0.00 0.00 0.00 50 1013.2
20260905174000 35 112 8.0 11.3 0.00 0.00 0.00 50 1013.5
20260905173500 35 112 6.4 9.7 0.00 0.00 0.00 50 1013.5
20260905173000 35 180 4.8 14.5 0.00 0.00 0.00 51 1013.5
20260905172500 34 270 4.8 14.5 0.00 0.00 0.00 52 1013.5
20260905172000 33 0 0.0 9.7 0.00 0.00 0.00 52 1013.5
20260905171500 33 112 4.8 9.7 0.00 0.00 0.00 52 1013.5
20260905171000 34 112 3.2 8.0 0.00 0.00 0.00 53 1013.9
20260905170500 34 180 6.4 11.3 0.00 0.00 0.00 56 1013.5
20260905170000 33 225 3.2 11.3 0.00 0.00 0.00 55 1013.9
20260905165500 33 225 6.4 11.3 0.00 0.00 0.00 56 1013.9
20260905165000 33 180 4.8 11.3 0.00 0.00 0.00 56 1014.2
20260905164500 33 180 6.4 11.3 0.00 0.00 0.00 60 1014.2
20260905164000 32 180 3.2 11.3 0.00 0.00 0.00 56 1014.2
20260905163500 32 112 6.4 11.3 0.00 0.00 0.00 56 1014.2
20260905163000 32 0 0.0 11.3 0.00 0.00 0.00 58 1014.2
20260905162500 32 180 4.8 11.3 0.00 0.00 0.00 60 1014.2
20260905162000 32 112 4.8 9.7 0.00 0.00 0.00 59 1014.2
20260905161500 32 157 3.2 9.7 0.00 0.00 0.00 61 1014.2
20260905161000 31 292 4.8 11.3 0.00 0.00 0.00 61 1014.2
20260905160500 31 22 4.8 11.3 0.00 0.00 0.00 64 1014.2
20260905160000 31 225 3.2 12.9 0.00 0.00 0.00 65 1014.2
20260905155500 30 67 8.0 12.9 0.00 0.00 0.00 63 1014.2
20260905155000 30 112 4.8 11.3 0.00 0.00 0.00 64 1014.2
20260905154500 30 112 1.6 12.9 0.00 0.00 0.00 64 1014.2
20260905154000 30 157 4.8 12.9 0.00 0.00 0.00 64 1014.2
20260905153500 30 112 3.2 9.7 0.00 0.00 0.00 66 1014.2
20260905153000 30 225 3.2 8.0 0.00 0.00 0.00 70 1014.6
20260905152500 30 157 4.8 8.0 0.00 0.00 0.00 70 1014.2
20260905152000 29 112 4.8 12.9 0.00 0.00 0.00 72 1014.2
20260905151500 28 112 4.8 12.9 0.00 0.00 0.00 73 1014.2
20260905151000 28 67 6.4 14.5 0.00 0.00 0.00 74 1014.6
20260905150500 28 67 3.2 14.5 0.00 0.00 0.00 75 1014.2
20260905150000 28 112 9.7 11.3 0.00 0.00 0.00 74 1014.2
20260905145500 28 112 9.7 11.3 0.00 0.00 0.00 76 1014.2
20260905145000 27 112 6.4 14.5 0.00 0.00 0.00 77 1014.2
20260905144500 27 112 4.8 14.5 0.00 0.00 0.00 77 1014.2
20260905144000 27 247 9.7 12.9 0.00 0.00 0.00 79 1014.6
20260905143500 27 157 4.8 9.7 0.00 0.00 0.00 80 1014.2
20260905143000 27 67 9.7 16.1 0.00 0.00 0.00 80 1014.6
20260905142500 26 292 4.8 16.1 0.00 0.00 0.00 79 1014.2
20260905142000 26 22 8.0 11.3 0.00 0.00 0.00 79 1014.2
20260905141500 26 112 6.4 8.0 0.00 0.00 0.00 78 1014.2
20260905141000 26 112 3.2 8.0 0.00 0.00 0.00 79 1014.2
20260905140500 26 112 4.8 8.0 0.00 0.00 0.00 79 1014.2
20260905140000 27 22 8.0 8.0 0.00 0.00 0.00 76 1014.2
20260905135500 26 22 8.0 11.3 0.00 0.00 0.00 76 1014.2
20260905135000 26 67 3.2 16.1 0.00 0.00 0.00 76 1014.2
20260905134500 26 112 6.4 16.1 0.00 0.00 0.00 77 1014.2
20260905134000 26 22 4.8 11.3 0.00 0.00 0.00 78 1014.2
20260905133500 26 337 6.4 12.9 0.00 0.00 0.00 79 1014.2
20260905133000 26 67 4.8 12.9 0.00 0.00 0.00 79 1014.2
20260905132500 26 22 3.2 11.3 0.00 0.00 0.00 81 1014.2
20260905132000 26 22 4.8 11.3 0.00 0.00 0.00 80 1014.2
20260905131500 25 22 4.8 8.0 0.00 0.00 0.00 82 1014.2
20260905131000 25 157 3.2 8.0 0.00 0.00 0.00 83 1014.2
20260905130500 25 67 1.6 4.8 0.00 0.00 0.00 83 1014.2
20260905130000 26 292 3.2 6.4 0.00 0.00 0.00 81 1014.2
20260905125500 26 22 3.2 6.4 0.00 0.00 0.00 81 1014.2
20260905125000 26 22 4.8 6.4 0.00 0.00 0.00 81 1014.2
20260905124500 26 67 3.2 8.0 0.00 0.00 0.00 81 1014.2
20260905124000 26 22 6.4 8.0 0.00 0.00 0.00 81 1014.2
20260905123500 25 292 4.8 9.7 0.00 0.00 0.00 81 1014.2
20260905123000 25 22 6.4 9.7 0.00 0.00 0.00 82 1014.2
20260905122500 25 22 6.4 9.7 0.00 0.00 0.00 83 1013.9
20260905122000 25 22 8.0 9.7 0.00 0.00 0.00 84 1013.9
20260905121500 25 22 6.4 6.4 0.00 0.00 0.00 85 1014.2
20260905121000 25 22 4.8 6.4 0.00 0.00 0.00 85 1013.9
20260905120500 25 292 3.2 6.4 0.00 0.00 0.00 85 1013.9
20260905120000 25 292 4.8 4.8 0.00 0.00 0.00 85 1013.9
20260905115500 25 0 0.0 3.2 0.00 0.00 0.00 85 1013.9
20260905115000 25 0 0.0 3.2 0.00 0.00 0.00 82 1013.9